Wind_Speed
27 30 27 18 17 17 15 14 12 12 11 8 11 15 22 27 31 45 53 52 47 43 44 43 43 45 44 47 44 47 48 45 46 48 49 47 47 48 48 51 52 52 55
25 29 25 22 18 17 14 9 12 13 12 12 2 5 12 21 23 37 48 49 49 46 45 46 47 47 44 45 49 50 51 51 52 52 52 53 54 52 55 59 61 61 63
27 27 23 19 21 21 14 9 11 13 14 12 8 7 10 11 17 28 35 42 46 47 48 48 48 47 42 47 50 51 55 55 56 57 56 57 58 58 60 63 66 67 66
28 25 22 20 19 22 18 15 14 12 12 13 12 10 7 12 14 26 36 39 43 44 49 51 51 50 51 49 52 53 56 58 59 61 60 59 62 65 68 68 69 70 68
27 28 24 22 19 16 13 9 8 8 9 11 12 9 10 10 13 22 33 38 42 46 46 50 52 54 56 56 58 61 63 63 64 59 60 64 67 71 72 72 73 74 72
26 29 28 22 20 15 13 14 13 16 14 13 12 11 16 16 15 17 26 37 43 45 49 55 57 58 58 59 62 62 64 64 64 66 67 70 72 72 74 78 79 80 82
24 25 24 27 26 33 29 26 25 22 23 19 21 23 21 21 22 24 23 28 38 45 49 55 57 60 61 62 64 66 68 70 73 76 79 80 78 74 72 74 78 81 84
23 22 23 26 24 30 32 32 29 29 28 21 22 24 25 26 27 27 29 33 35 39 49 57 60 62 62 64 67 70 74 75 75 74 76 76 77 77 80 82 84 87 91
21 19 16 18 20 18 22 26 26 28 28 25 27 27 26 27 27 28 32 37 40 42 45 49 54 57 60 63 66 68 70 72 73 74 75 77 80 84 86 88 90 90 92
20 19 17 16 20 23 24 24 25 26 28 30 32 33 33 34 35 36 38 40 44 47 52 55 56 59 62 65 69 72 75 76 78 79 81 85 89 89 88 90 93 96 99
21 21 24 27 26 26 26 25 25 26 28 29 31 32 33 34 35 38 39 39 41 45 50 58 63 69 71 74 76 77 78 80 82 82 85 88 89 90 92 94 96 98 101
27 24 25 27 29 29 29 27 26 29 30 32 34 35 38 39 41 40 40 42 44 46 48 50 54 60 70 76 80 87 90 91 93 93 93 94 94 95 96 98 98 99 99
37 35 32 29 30 31 32 33 38 40 42 43 43 45 46 45 47 49 49 50 51 53 56 57 59 59 63 68 71 75 78 84 87 89 91 91 92 94 94 93 94 97 98
47 46 44 42 42 42 43 45 48 51 51 51 51 51 52 55 55 56 58 57 58 60 63 64 63 64 64 65 66 67 70 74 78 81 83 85 88 90 92 95 96 99 100
57 57 56 55 54 54 55 56 56 55 56 59 60 61 61 62 62 62 62 64 67 69 70 68 68 70 66 64 65 68 70 72 75 78 81 84 86 89 91 94 96 99 101
63 64 64 64 63 63 61 62 62 62 63 65 66 67 67 66 66 69 71 72 73 74 72 72 72 71 68 67 69 71 73 74 75 78 81 83 86 90 92 95 98 101 104
67 67 68 68 67 65 66 67 68 68 70 71 71 72 73 74 74 75 75 75 76 74 74 74 73 72 70 71 73 75 75 76 77 79 82 86 91 94 98 101 103 106 110
71 70 72 72 71 71 70 71 71 72 74 75 76 76 76 76 77 78 77 75 74 74 75 73 74 72 73 73 74 76 78 81 84 86 88 90 92 95 97 99 101 104 107
77 75 75 76 74 73 74 76 79 79 78 78 77 77 77 78 78 77 77 76 75 75 74 74 73 75 75 74 76 80 84 88 89 90 93 95 96 98 98 98 98 98 98
78 76 77 72 73 78 81 79 77 78 77 76 78 77 78 79 78 75 73 73 73 72 73 74 76 78 80 82 84 88 93 94 94 95 96 96 96 95 94 92 89 86 84
73 70 74 80 81 73 71 76 78 77 76 75 75 76 76 73 71 70 70 72 72 72 72 74 77 80 86 90 93 96 97 97 97 97 96 94 89 83 81 80 77 74 73
76 81 78 75 74 75 78 75 74 73 71 72 70 68 67 67 69 70 71 72 73 75 77 78 81 86 90 94 96 96 98 98 94 87 80 76 74 71 69 67 65 63 61
75 72 73 72 76 77 72 69 68 68 66 64 63 63 64 65 66 68 71 74 77 78 81 85 89 94 95 95 95 95 90 80 74 72 67 64 63 61 59 57 55 52 50
65 63 61 61 61 60 61 59 56 55 54 57 59 60 62 65 68 71 73 76 80 84 89 93 95 95 94 94 89 79 74 67 63 61 58 56 55 53 51 49 47 47 45
60 57 52 52 53 53 52 51 52 54 57 59 60 63 66 70 72 75 77 81 86 90 94 95 92 93 92 81 72 66 63 60 57 54 51 48 46 44 43 43 43 41 38
57 53 49 47 45 47 50 52 54 56 58 61 65 69 72 75 78 81 84 87 92 93 92 93 92 88 75 68 62 57 54 52 50 47 45 42 39 38 37 38 39 37 34
Wind_Direction
296 299 291 287 303 328 333 322 340 343 314 301 258 237 233 224 223 217 217 221 225 227 230 233 230 234 242 245 248 257 262 258 259 265 269 272 276 278 276 278 277 280 280
293 298 294 289 285 301 327 329 324 337 351 352 328 252 231 225 223 216 216 224 226 229 232 234 236 241 247 247 250 255 254 257 261 265 268 272 276 278 275 283 283 282 282
283 294 293 285 283 285 304 320 330 327 341 349 344 292 268 250 233 219 217 221 225 228 230 234 238 241 245 248 253 258 259 261 263 266 270 272 274 277 277 279 279 278 278
275 280 287 276 264 277 278 283 294 302 313 324 331 326 307 255 235 228 220 224 224 228 232 234 237 240 242 247 251 253 257 262 265 268 273 277 276 274 274 273 275 276 277
275 275 280 272 251 256 252 261 293 319 307 293 289 303 302 290 261 236 233 232 238 236 236 239 241 244 248 250 251 256 259 260 264 267 268 266 267 269 270 271 274 276 277
275 272 274 264 248 249 251 265 275 298 301 289 285 280 273 273 262 255 242 234 240 245 247 248 248 249 250 252 253 256 260 262 262 261 261 265 267 270 274 278 281 282 283
272 274 272 265 262 260 258 270 280 289 287 290 291 291 290 288 273 259 251 249 246 244 245 246 247 250 253 253 255 258 260 262 263 265 265 268 271 274 274 275 277 279 280
280 274 268 273 271 261 267 272 282 289 292 300 300 292 287 283 281 278 270 260 255 253 251 251 253 255 257 259 260 261 263 265 267 270 272 272 273 273 274 276 276 274 275
280 279 285 283 276 275 274 277 282 288 285 287 290 292 292 287 284 282 274 271 267 265 263 263 262 262 260 261 262 264 266 268 270 271 272 272 273 274 274 275 275 274 273
307 274 271 270 271 275 275 277 277 284 286 284 287 289 287 287 284 281 282 282 276 271 267 267 268 267 267 267 266 266 266 267 267 268 267 267 268 267 267 267 268 269 272
310 302 287 284 283 284 281 280 280 282 281 284 286 284 285 284 283 283 284 281 280 279 278 274 272 270 269 268 268 267 268 268 268 270 272 273 274 274 275 276 277 278 277
300 301 294 285 282 283 281 276 277 279 278 279 282 287 289 288 288 285 286 284 282 287 290 289 287 285 280 275 271 268 267 268 268 269 270 271 272 274 274 274 275 276 276
295 291 288 288 283 283 286 279 284 287 288 290 290 291 288 285 284 284 284 286 288 289 289 290 290 291 289 283 278 275 274 272 272 272 272 273 273 273 273 273 274 274 273
290 291 290 286 284 284 285 284 284 284 286 288 287 288 290 289 291 292 292 292 291 294 298 296 291 292 291 285 282 281 280 278 275 274 273 272 271 271 272 273 274 273 274
286 287 287 285 285 286 288 286 284 284 283 286 288 291 292 292 291 293 295 295 295 297 299 296 294 295 291 288 285 285 284 281 278 277 276 275 275 275 275 275 275 275 276
285 285 284 283 284 285 284 284 285 285 286 287 289 290 292 293 294 295 295 296 297 298 298 296 295 295 291 289 289 289 287 284 282 280 279 279 278 278 277 277 276 276 277
284 285 284 283 282 282 282 284 285 286 287 288 290 292 293 294 295 296 298 297 297 297 297 296 295 294 291 291 292 291 290 288 287 285 284 283 282 280 279 278 277 276 276
284 284 283 283 283 283 283 284 285 285 286 288 289 291 292 294 296 296 297 297 296 296 296 295 295 295 294 295 294 292 290 289 289 288 287 285 284 282 280 279 278 277 277
281 279 278 279 280 282 283 284 285 286 286 288 290 291 292 293 294 294 294 295 295 294 295 296 296 295 295 294 293 293 294 295 295 294 292 290 289 288 286 285 284 283 283
282 281 279 279 284 287 286 286 285 286 286 287 290 290 291 292 292 293 293 293 295 296 296 296 297 298 299 299 299 300 300 299 298 296 295 293 292 291 290 289 289 288 287
278 276 279 284 284 285 284 286 287 285 284 284 285 287 289 289 290 291 290 292 293 293 295 297 299 301 302 303 302 302 301 300 300 298 297 296 295 294 293 292 291 290 289
278 279 279 281 279 281 285 287 286 288 289 289 289 289 289 290 291 293 295 296 297 298 300 301 303 303 303 304 303 303 302 301 300 299 297 296 296 295 295 295 294 294 293
283 283 281 278 278 281 283 282 283 285 286 288 289 290 292 292 292 293 295 297 299 300 301 304 305 306 306 306 306 305 304 303 302 300 300 299 299 297 297 296 296 295 294
287 288 287 286 284 284 285 286 287 288 285 284 286 287 288 290 292 294 296 299 301 304 305 306 307 307 308 308 308 306 306 305 304 304 303 301 299 297 297 298 298 299 299
289 288 287 286 284 284 284 284 284 284 288 291 291 292 293 294 297 300 302 303 303 304 305 306 307 309 310 310 309 309 309 309 309 307 306 303 301 300 301 303 303 303 302
289 286 283 282 284 284 285 286 286 286 287 289 292 294 297 299 301 302 303 303 304 305 306 308 309 311 310 311 312 312 312 312 313 312 310 308 306 305 306 308 308 307 306
Height
10860 10857 10855 10853 10851 10847 10844 10842 10837 10834 10831 10826 10826 10826 10828 10832 10836 10841 10850 10856 10863 10867 10871 10876 10879 10881 10881 10881 10880 10880 10883 10885 10885 10884 10884 10884 10883 10880 10878 10877 10876 10874 10871
10857 10853 10852 10851 10849 10848 10845 10841 10837 10834 10831 10828 10827 10827 10828 10830 10833 10838 10844 10850 10855 10860 10864 10868 10871 10873 10875 10875 10874 10874 10875 10876 10876 10875 10873 10872 10871 10870 10867 10864 10862 10860 10857
10851 10849 10847 10847 10846 10845 10843 10840 10837 10834 10831 10830 10828 10828 10829 10829 10831 10835 10839 10844 10849 10853 10856 10859 10862 10864 10866 10868 10867 10865 10865 10865 10864 10862 10861 10858 10858 10855 10853 10851 10847 10845 10842
10844 10844 10844 10843 10842 10841 10840 10838 10835 10834 10832 10831 10829 10828 10828 10829 10831 10833 10836 10838 10841 10845 10848 10850 10852 10854 10855 10856 10855 10855 10853 10852 10852 10850 10847 10843 10842 10839 10837 10835 10831 10829 10827
10838 10839 10841 10839 10837 10836 10836 10834 10832 10831 10830 10830 10828 10828 10828 10828 10828 10830 10833 10836 10837 10838 10839 10841 10843 10844 10845 10845 10844 10843 10842 10839 10838 10837 10834 10830 10827 10823 10820 10818 10815 10811 10809
10833 10834 10835 10833 10832 10833 10832 10831 10830 10829 10828 10827 10826 10826 10826 10826 10826 10826 10826 10829 10831 10832 10833 10833 10834 10835 10835 10834 10832 10830 10828 10827 10825 10823 10820 10815 10812 10808 10802 10797 10793 10789 10785
10826 10827 10828 10825 10828 10827 10827 10827 10825 10825 10826 10825 10823 10823 10823 10822 10823 10822 10822 10822 10822 10823 10823 10823 10824 10823 10822 10820 10819 10817 10814 10812 10810 10808 10805 10801 10796 10792 10789 10784 10779 10773 10765
10819 10821 10822 10820 10821 10821 10821 10821 10821 10819 10819 10818 10817 10817 10817 10816 10815 10815 10815 10815 10814 10814 10812 10812 10811 10810 10808 10806 10804 10802 10799 10796 10794 10791 10787 10782 10778 10774 10770 10766 10764 10758 10749
10817 10816 10817 10815 10815 10816 10815 10815 10814 10813 10812 10811 10810 10809 10809 10808 10808 10807 10806 10805 10804 10803 10801 10799 10797 10795 10793 10790 10787 10784 10781 10778 10775 10772 10768 10763 10758 10754 10749 10746 10743 10737 10731
10815 10814 10814 10812 10811 10811 10810 10809 10809 10808 10806 10805 10803 10801 10800 10799 10798 10797 10795 10793 10791 10790 10788 10785 10782 10779 10777 10774 10770 10766 10763 10759 10755 10752 10747 10742 10738 10733 10728 10724 10720 10716 10709
10813 10812 10810 10808 10807 10807 10805 10803 10802 10801 10799 10797 10795 10793 10791 10788 10787 10785 10782 10779 10776 10774 10771 10768 10764 10759 10757 10754 10750 10746 10742 10736 10732 10729 10722 10717 10712 10708 10703 10698 10692 10687 10682
10810 10808 10805 10803 10801 10799 10797 10796 10794 10792 10791 10789 10787 10784 10782 10778 10774 10772 10770 10766 10762 10759 10754 10750 10744 10738 10732 10729 10726 10721 10717 10712 10708 10705 10699 10694 10688 10681 10676 10671 10666 10660 10655
10802 10800 10798 10797 10794 10792 10789 10787 10784 10782 10780 10779 10776 10773 10770 10766 10762 10759 10756 10752 10748 10743 10739 10734 10727 10721 10713 10705 10701 10696 10690 10685 10681 10677 10673 10668 10662 10655 10649 10644 10639 10632 10627
10791 10789 10787 10785 10782 10780 10778 10776 10773 10769 10767 10765 10762 10759 10755 10752 10747 10742 10737 10734 10729 10724 10719 10713 10707 10700 10693 10686 10679 10673 10667 10660 10654 10649 10644 10639 10633 10628 10622 10615 10608 10601 10595
10777 10775 10773 10770 10769 10766 10763 10759 10756 10753 10751 10747 10744 10741 10738 10734 10729 10725 10719 10713 10708 10702 10697 10690 10684 10677 10669 10663 10656 10650 10642 10635 10628 10622 10616 10610 10604 10598 10593 10586 10578 10570 10564
10761 10759 10757 10755 10751 10749 10746 10742 10738 10735 10732 10729 10725 10721 10718 10714 10710 10704 10698 10692 10686 10680 10674 10667 10660 10652 10645 10638 10632 10625 10617 10610 10603 10596 10590 10585 10578 10569 10563 10556 10547 10539 10532
10744 10742 10739 10735 10732 10730 10726 10722 10719 10716 10713 10709 10705 10700 10696 10692 10687 10681 10675 10669 10663 10658 10651 10643 10636 10629 10622 10615 10608 10599 10591 10583 10577 10570 10563 10554 10544 10536 10528 10522 10515 10504 10496
10727 10723 10719 10715 10713 10711 10707 10702 10699 10696 10692 10688 10684 10680 10676 10670 10664 10658 10652 10646 10640 10635 10628 10619 10612 10605 10598 10593 10584 10574 10564 10557 10551 10545 10535 10521 10510 10501 10491 10484 10478 10467 10459
10706 10701 10697 10694 10692 10691 10687 10682 10676 10673 10671 10667 10663 10658 10654 10649 10643 10637 10630 10624 10618 10612 10605 10597 10589 10581 10575 10570 10562 10551 10539 10529 10519 10512 10499 10486 10475 10463 10455 10445 10436 10428 10420
10680 10677 10674 10670 10669 10668 10667 10662 10654 10649 10650 10647 10640 10635 10631 10626 10620 10614 10608 10603 10597 10590 10582 10574 10564 10554 10546 10540 10534 10522 10507 10497 10485 10473 10461 10450 10437 10427 10417 10408 10399 10391 10384
10660 10656 10654 10652 10649 10647 10645 10641 10635 10629 10629 10628 10623 10615 10610 10605 10600 10594 10588 10583 10577 10572 10566 10557 10545 10535 10522 10511 10500 10489 10475 10462 10451 10438 10425 10413 10402 10392 10384 10377 10370 10363 10356
10640 10637 10635 10632 10628 10628 10625 10619 10612 10606 10603 10599 10598 10593 10589 10584 10577 10571 10565 10557 10550 10544 10538 10532 10524 10514 10501 10487 10472 10459 10445 10432 10420 10408 10395 10386 10377 10367 10359 10352 10346 10340 10334
10618 10616 10613 10611 10610 10608 10605 10602 10596 10592 10589 10583 10579 10574 10570 10564 10558 10553 10548 10538 10529 10523 10516 10507 10497 10484 10472 10458 10444 10430 10415 10402 10391 10382 10372 10363 10355 10348 10341 10335 10329 10323 10318
10600 10597 10595 10592 10589 10587 10585 10581 10580 10575 10572 10569 10564 10560 10554 10549 10542 10536 10531 10521 10508 10499 10488 10479 10470 10457 10444 10430 10416 10402 10391 10381 10371 10362 10354 10346 10338 10332 10326 10320 10315 10309 10304
10586 10581 10579 10576 10572 10569 10568 10565 10562 10559 10554 10549 10545 10540 10535 10528 10521 10515 10508 10499 10487 10477 10467 10454 10445 10432 10418 10405 10394 10383 10372 10362 10354 10346 10339 10332 10324 10319 10313 10308 10302 10297 10292
10571 10567 10564 10561 10558 10554 10551 10548 10545 10542 10539 10534 10527 10520 10514 10507 10498 10491 10485 10477 10464 10455 10443 10430 10420 10412 10395 10386 10377 10368 10359 10350 10342 10334 10326 10319 10313 10308 10303 10297 10291 10286 10282